Weather in Bikhov

Belarus     53°31′05″N   30°14′25″E
temp.,
°C
wind,
m/s
gust,
m/s
humid.,
%
clouds,
%
prec.,
mm/h
press.,
hPa
HPBL,
m
13 august, sat
sat1300:00+17ne49815 0.0 1022150
03:00+16ne38800 0.0 1022120
06:00+15ene358555 0.0 102192
09:00+21ene5770100 0.0 1021351
12:00+25ene5757100 0.0 1020817
15:00+26ene6753100 0.0 10191377
18:00+25ese4763100 0.0 1018413
21:00+20ene2574100 0.0 101889
14 august, sun
sun1400:00+20ne3877100 0.0 1017189
03:00+19ene41080100 0.0 1017217
06:00+18ne4984100 0.0 1016202
09:00+21ene3573100 0.0 1016252
12:00+26e5753100 0.0 1016718
15:00+25e61058100 0.0 1016579
18:00+21ene41173100 0.0 1015304
21:00+22e4970100 0.2 1015299
15 august, mon
mon1500:00+19e3118623 0.1 1016271
03:00+17e399351 0.1 1016172
06:00+17e410915 0.0 1016209
09:00+22e58675 0.0 1016364
12:00+27e674973 0.0 1015931
15:00+29e6744100 0.0 10141294
18:00+27ene5854100 0.0 1014424
21:00+22ene41170100 0.0 1014216
16 august, tue
tue1600:00+21ene4137059 0.0 1014273
03:00+22ene51259100 0.0 1013379
06:00+18ene3881100 0.3 1013164
09:00+20e51469100 0.3 1014353
12:00+27ese9134699 0.0 10141182
15:00+27ese71347100 0.0 10151128
18:00+24ese51055100 0.0 1016523
21:00+21e51453100 0.0 1016477
17 august, wed
wed1700:00+21e41056100 0.0 1015294
03:00+20ene51256100 0.0 1014286
06:00+20ene3654100 0.0 1014146
09:00+20ene4126197 0.0 1014345
12:00+27e6943100 0.0 10131189
15:00+26e694820 0.0 10131287
18:00+27e6951100 0.0 1013850
21:00+22ene497069 0.0 1014175